Flag for Canada Weather past 2 weeks in Cambridge, Ontario, Canada

Now
30 °F

Sunny.


Feels Like: 24 °F
Forecast: 19 / 29 °F
Wind: 6 mph from Northwest

Location: Waterloo Well

Current Time: Dec 20, 2014 at 3:20:32 PM

Latest Report: Dec 20, 2014 at 3:00 PM


Visibility: 9 mi

Pressure: 30.26 "Hg

Humidity: 64%

Dew point: 19 °F

Location of CambridgeLocation

Historic Weather in Cambridge — Graph

°F

Cambridge temperature yesterday

Maximum temperature yesterday: 27 °F (at 2:00 PM)
Minimum temperature yesterday: 21 °F (at 4:00 AM)
Average temperature yesterday: 23 °F

Past Weeks' High & Low Weather Summary

 TemperatureHumidityPressure
High41 °F (Dec 16, 11:59 PM)100% (Dec 6, 5:00 AM)30.79 "Hg (Dec 6, 5:00 AM)
Low16 °F (Dec 20, 7:00 AM)40% (Dec 7, 1:00 PM)29.70 "Hg (Dec 16, 2:00 PM)
Average31 °F86%30.12 "Hg
* Reported Dec 5 2:00 PM — Dec 20 2:00 PM, Cambridge, Weather by CustomWeather, © 2014

Note: Actual official high and low records may vary slightly from our data, if they occured in-between our weather recording intervals... More about our weather records

Advertising

Cambridge weather history for previous 24 hours

 ConditionsComfort  
Time TempWeatherWind HumidityBarometerVisibility
2:00 PM
Dec 20
30 °FSunny.5 mph64%30.27 "Hg9 mi
1:00 PM28 °FSunny.5 mph64%30.28 "Hg9 mi
12:00 PM28 °FSunny.5 mph69%30.28 "Hg9 mi
11:00 AM25 °FSunny.5 mph86%30.31 "Hg9 mi
10:00 AM23 °FSunny.5 mph93%30.32 "Hg9 mi
9:00 AM19 °FSunny.3 mph93%30.33 "Hg9 mi
8:00 AM16 °FSunny.5 mph100%30.32 "Hg9 mi
7:00 AM16 °FClear.3 mph100%30.32 "Hg9 mi
6:00 AM18 °FPassing clouds.3 mph100%30.31 "Hg9 mi
5:00 AM18 °FPassing clouds.2 mph100%30.30 "Hg9 mi
4:00 AM18 °FClear.3 mph93%30.29 "Hg9 mi
3:00 AM19 °FClear.No wind93%30.28 "Hg9 mi
2:00 AM19 °FClear.2 mph100%30.26 "Hg9 mi
1:00 AM21 °FClear.3 mph93%30.27 "Hg9 mi
12:00 AM23 °FOvercast.7 mph93%30.29 "Hg9 mi
11:00 PM
Dec 19
23 °FOvercast.6 mph86%30.30 "Hg9 mi
10:00 PM21 °FPassing clouds.6 mph93%30.31 "Hg9 mi
9:00 PM21 °FClear.7 mph86%30.31 "Hg9 mi
8:00 PM21 °FClear.7 mph86%30.29 "Hg9 mi
7:00 PM23 °FPassing clouds.8 mph80%30.29 "Hg9 mi
6:00 PM23 °FPassing clouds.7 mph80%30.27 "Hg9 mi
5:00 PM23 °FClear.7 mph80%30.25 "Hg9 mi
4:00 PM25 °FPassing clouds.12 mph80%30.23 "Hg9 mi
3:00 PM27 °FScattered clouds.10 mph74%30.22 "Hg9 mi
Weather by CustomWeather, © 2014

See weather overviewHow to use our weather pages